Weather in Karymsk

Russia / Irkutsk Oblast     54°06′10″N   101°50′26″E
temp.,
°C
wind,
m/s
gust,
m/s
humid.,
%
clouds,
%
prec.,
mm/h
press.,
hPa
HPBL,
m
30 june, thu
thu3023:00+15wnw2295100 0.7 100860
02:00+14ene129799 0.7 100662
05:00+13nw11950 0.0 100611
08:00+18ne01810 0.0 1006273
11:00+25sw11500 0.0 1003884
14:00+29n01350 0.0 10021496
17:00+30nne12290 0.0 10011856
20:00+24ene36540 0.0 1001140
1 july, fri
fri123:00+18se22710 0.0 100223
02:00+16ese23800 0.0 100138
05:00+15ese23804 0.0 100255
08:00+21sse246070 0.0 1002350
11:00+27se354260 0.0 1000934
14:00+30se463456 0.0 9981340
17:00+31ese453263 0.0 9961560
20:00+26ene2654100 0.0 996105
2 july, sat
sat223:00+20nw4987100 1.6 1000233
02:00+18wnw479598 1.6 1000306
05:00+17nw499684 0.1 1000364
08:00+16nw4892100 0.3 1001500
11:00+17nnw4792100 0.3 1000589
14:00+17wnw3597100 5.7 999364
17:00+15wnw6119795 0.4 1003691
20:00+13wnw81494100 0.6 1006835
3 july, sun
sun323:00+12wnw41190100 0.0 1008554
02:00+11wnw3991100 0.0 1009361
05:00+9wnw229677 0.0 100923
08:00+14w126792 0.0 1009352
11:00+20nnw2250100 0.0 10081222
14:00+22nne3344100 0.0 10061903
17:00+22n234175 0.0 10051606
20:00+18ne256088 0.0 1005157
4 july, mon
mon423:00+16nne226287 0.0 100535
02:00+12n2279100 0.0 100627
05:00+12n2475100 0.0 100686
08:00+15nw2370100 0.0 1006172
11:00+18nnw2358100 0.0 1006604
14:00+22n3443100 0.0 10042113
17:00+20nnw3351100 0.0 1004948
20:00+18nnw2366100 0.0 100499